Location: Quaker Farms
(41.4276°N, 73.1557°W)
Time: 20:59:17
(UTC+00:00)

Altair - Visible Passes

Search period start: 13 June 2021 00:00
Search period end: 23 June 2021 00:00
Orbit: 1501 x 1683 km, 47.2° (Epoch: 12 June)

Date Brightness Start Highest point End Pass type
(mag) Time Alt. Az. Time Alt. Az. Time Alt. Az.
13 Jun 7.8 00:43:38 10° WNW 00:53:41 82° NNE 01:03:55 10° ESE visible
13 Jun 8.1 02:48:46 10° WNW 02:58:12 47° SW 03:03:17 28° S visible
13 Jun 9.3 04:58:47 10° WSW 05:01:08 11° WSW 05:01:17 11° WSW visible
14 Jun 8.0 02:23:30 10° WNW 02:33:04 50° SW 02:39:14 24° SSE visible
14 Jun 9.2 04:32:11 10° W 04:36:07 13° WSW 04:37:14 13° SW visible
15 Jun 8.0 01:58:16 10° WNW 02:07:55 54° SW 02:15:14 19° SSE visible
15 Jun 9.1 04:06:07 10° W 04:11:04 15° WSW 04:13:13 14° SW visible
16 Jun 8.0 01:33:01 10° WNW 01:42:45 58° SW 01:51:16 15° SE visible
16 Jun 9.1 03:40:17 10° W 03:46:01 17° WSW 03:49:16 14° SW visible
17 Jun 7.9 01:07:47 10° WNW 01:17:34 62° SW 01:27:21 11° SE visible
17 Jun 9.0 03:14:36 10° W 03:20:58 19° SW 03:25:22 14° SSW visible
18 Jun 7.9 00:42:34 10° WNW 00:52:24 66° SW 01:02:25 10° SE visible
18 Jun 9.0 02:49:00 10° W 02:55:54 21° SW 03:01:30 13° SSW visible
19 Jun 9.0 02:23:29 10° W 02:30:50 24° SW 02:37:42 11° S visible
20 Jun 8.9 01:58:03 10° WNW 02:05:45 26° SW 02:13:33 10° S visible
21 Jun 8.9 01:32:38 10° WNW 01:40:40 29° SW 01:48:49 10° S visible
22 Jun 8.8 01:07:16 10° WNW 01:15:34 31° SW 01:24:01 10° S visible
